Wind_Speed
27 25 26 24 24 25 28 31 35 39 39 42 45 40 39 38 40 57 48 50 46 44 45 44 45 44 43 41 39 37 36 33 31 28 24 20 19 18 17 15 13 11 9
22 24 22 24 24 25 27 29 31 34 38 43 46 44 44 42 43 48 44 53 49 47 47 46 47 46 45 43 42 40 38 35 32 27 24 15 16 18 18 16 15 13 11
30 23 17 22 23 27 29 33 30 28 38 42 43 44 43 47 51 52 56 53 55 49 48 45 46 47 46 45 43 42 39 38 36 29 16 9 9 20 19 18 16 15 13
21 16 15 18 22 26 30 32 30 30 35 42 44 44 46 54 58 59 60 56 59 51 42 46 46 47 45 43 42 40 37 36 35 32 22 13 11 11 11 20 18 16 15
15 8 11 19 22 25 35 35 34 29 28 35 42 43 44 46 46 50 55 51 52 46 47 43 46 46 44 43 42 41 38 36 33 32 30 16 13 11 7 10 19 18 16
20 15 2 8 21 29 37 38 34 27 23 25 28 33 39 41 45 47 56 57 57 54 49 46 47 44 44 43 41 40 37 35 33 29 28 19 16 13 8 6 10 11 14
19 2 17 14 3 24 32 34 31 27 23 22 22 32 37 39 39 44 48 60 61 61 57 52 48 45 45 42 41 39 38 36 34 30 27 24 19 14 13 11 9 9 10
23 16 2 14 21 16 29 31 37 28 25 25 25 33 42 36 40 37 49 61 60 65 60 52 49 46 44 42 41 40 38 37 34 32 29 26 22 17 15 13 12 10 11
27 18 9 1 8 16 21 29 30 35 33 33 27 33 36 40 41 44 56 58 60 62 58 52 49 46 44 43 41 41 39 38 35 34 30 29 25 23 19 16 13 14 11
30 23 16 8 3 3 3 22 28 45 40 30 24 31 30 33 32 41 54 58 63 61 60 49 46 46 46 44 43 42 40 39 38 36 34 31 28 25 22 20 17 17 16
28 27 20 12 8 4 3 7 23 35 34 27 24 26 26 32 32 35 51 58 58 55 53 52 52 51 49 50 47 44 42 41 39 38 37 34 31 29 25 23 22 21 19
26 26 23 20 13 9 6 7 11 26 31 29 29 29 22 23 26 30 36 53 55 52 49 55 56 52 51 49 46 45 43 42 41 40 38 37 34 33 30 28 26 23 23
27 28 26 25 20 15 8 3 1 14 26 28 28 26 24 23 23 24 26 33 49 52 53 50 55 56 52 47 45 42 41 38 38 39 39 38 38 37 34 32 30 28 27
27 29 29 25 21 17 13 7 5 6 15 23 27 28 25 23 23 20 21 26 32 37 44 52 48 51 48 46 42 41 39 37 38 39 39 39 38 37 36 35 33 31 30
26 27 28 27 24 20 15 11 3 0 9 16 20 31 27 25 26 24 18 23 23 25 30 33 39 42 46 44 42 41 37 35 35 36 36 37 37 36 37 35 36 34 33
24 24 26 26 26 23 18 16 8 3 5 12 15 27 32 30 31 30 25 21 22 23 27 24 22 30 36 37 33 32 33 34 33 34 34 31 32 34 35 37 36 36 35
25 25 26 25 25 22 20 18 12 6 2 5 13 18 30 34 31 30 28 26 26 26 26 29 32 22 23 24 25 27 30 29 29 31 32 33 33 31 34 38 38 38 37
26 26 26 25 22 22 20 16 13 9 4 0 7 12 24 31 34 32 31 29 30 31 32 29 29 30 28 25 26 26 28 29 28 28 30 31 30 30 31 33 37 39 38
23 23 23 20 21 21 19 17 14 11 7 4 1 5 17 26 32 35 35 34 34 35 34 32 28 26 23 22 25 28 30 29 27 27 29 28 29 29 30 30 32 36 36
22 23 21 19 19 19 18 17 15 13 12 9 4 3 10 14 21 30 35 35 34 34 35 34 33 31 28 27 30 30 32 30 28 27 28 28 27 26 27 28 30 32 34
20 19 18 19 19 19 18 18 17 15 14 13 8 5 7 10 12 18 25 30 31 32 37 37 37 32 28 28 30 30 28 28 28 29 29 27 25 26 27 27 27 27 26
22 21 23 22 20 20 19 19 18 16 14 13 9 6 5 8 9 12 18 23 28 31 30 30 35 32 31 29 31 30 28 27 26 25 24 23 22 22 23 23 23 24 25
20 20 20 20 20 19 18 19 18 17 16 13 9 5 5 8 9 10 12 16 22 26 29 31 29 30 31 31 29 28 27 25 23 22 22 21 22 23 23 23 24 23 26
18 18 18 19 19 18 17 17 17 17 15 14 9 4 1 5 9 11 12 13 15 20 25 29 30 29 28 28 28 27 26 23 23 25 26 26 25 24 22 23 23 24 25
20 18 17 18 19 18 17 16 15 16 15 14 13 9 4 2 6 10 13 15 16 17 18 20 22 26 26 23 23 25 25 24 25 27 26 25 24 24 25 27 27 25 22
19 20 18 19 19 18 18 17 16 16 16 15 14 12 8 4 5 7 9 12 17 19 19 19 20 21 22 22 22 22 22 23 25 26 25 25 25 25 26 27 28 24 21
Wind_Direction
223 221 222 219 216 213 212 215 216 222 211 209 214 214 208 212 218 220 216 206 203 203 203 199 195 191 192 189 187 186 183 182 184 180 178 183 189 193 195 194 193 197 201
222 222 221 219 217 213 207 206 211 219 215 216 218 215 213 217 217 220 228 206 208 203 205 200 197 193 192 190 189 190 183 188 185 182 175 180 199 207 205 203 203 206 210
221 218 221 219 213 210 203 208 209 207 210 210 210 211 214 216 215 218 212 211 209 203 203 201 199 196 195 192 191 193 193 190 187 186 175 165 201 207 212 211 212 214 216
221 218 224 220 213 205 200 201 204 204 207 209 209 210 204 206 206 211 208 216 212 195 200 205 200 199 196 195 194 196 196 198 194 187 190 191 189 180 202 215 215 219 220
207 190 229 231 216 202 194 201 198 199 203 212 215 211 209 208 211 214 214 213 195 192 197 208 205 202 200 198 198 198 198 200 203 199 193 189 178 178 167 195 212 222 223
232 235 143 213 217 199 201 192 185 190 200 210 215 222 219 214 212 216 210 202 199 191 191 208 210 203 204 202 201 202 201 202 204 206 205 199 188 185 179 173 185 209 223
33 194 244 263 242 178 195 189 189 202 211 217 228 228 227 221 221 224 208 187 189 188 194 198 209 206 206 204 205 204 206 206 207 207 209 211 214 211 211 207 204 211 219
11 26 324 253 273 174 190 204 200 202 209 216 227 228 215 222 223 219 206 194 196 186 195 196 206 207 206 207 207 207 209 210 210 211 212 217 217 215 216 213 212 218 224
3 10 22 291 257 278 170 196 205 198 211 218 220 219 224 221 216 206 201 201 195 192 195 196 201 206 206 208 209 212 210 213 214 215 215 219 221 223 223 224 221 226 231
5 8 7 4 20 264 235 170 181 204 212 213 214 219 230 223 220 213 204 205 200 199 196 197 202 204 207 210 213 214 212 215 217 219 220 222 223 225 226 228 230 234 236
3 5 360 5 359 74 283 137 176 179 202 204 218 222 228 228 221 219 208 202 201 201 198 199 200 207 210 210 213 215 214 217 219 222 224 226 228 229 230 233 235 237 241
5 4 8 10 19 20 110 297 142 165 185 198 212 223 220 231 216 213 213 209 205 208 209 204 204 207 213 215 214 215 217 220 222 225 228 230 231 233 234 235 239 242 244
3 7 11 13 13 14 29 203 167 154 176 187 205 210 220 224 212 213 215 215 215 215 211 209 206 209 212 214 217 219 222 223 227 231 232 233 234 236 238 240 242 244 247
4 5 8 5 5 7 17 17 219 157 165 180 198 202 214 216 210 205 211 208 213 216 216 210 210 209 213 214 217 221 223 224 228 232 234 236 238 240 243 243 245 246 248
1 1 359 0 2 3 7 358 68 201 157 167 187 198 204 217 206 192 181 198 195 200 193 208 209 212 214 216 215 220 222 227 229 232 236 239 241 242 244 244 246 247 248
354 354 356 359 2 357 357 358 7 22 145 164 175 192 200 204 206 203 199 191 197 197 192 191 203 203 212 212 214 219 223 228 231 236 239 243 244 242 243 244 245 246 249
348 350 354 355 356 355 358 355 355 8 77 166 174 179 193 193 199 208 208 201 200 205 196 208 218 213 207 207 213 220 224 227 233 239 241 243 245 246 244 242 242 243 244
345 351 353 355 357 0 357 352 353 354 19 146 165 177 186 193 199 205 208 209 211 206 206 204 206 216 217 213 215 217 222 224 229 236 242 244 243 244 246 245 244 244 243
351 352 355 353 2 1 0 0 355 346 345 338 199 180 175 187 196 203 204 207 205 207 206 208 213 217 216 213 218 221 222 224 229 233 236 240 243 243 245 247 246 246 247
355 357 359 8 7 2 5 4 360 352 341 330 315 255 173 177 191 203 206 208 214 216 210 209 209 214 213 215 217 221 225 224 228 234 235 237 243 246 247 251 251 250 247
354 359 9 10 9 6 8 5 2 358 345 330 316 286 192 184 191 197 206 212 213 219 219 217 213 211 214 218 217 220 224 227 228 230 232 234 235 238 242 249 252 255 249
357 4 5 5 7 9 6 4 0 357 348 338 319 298 227 203 198 206 206 212 219 220 221 221 220 214 215 215 221 225 229 229 230 232 234 232 233 240 244 248 249 248 245
354 0 1 3 6 4 6 1 356 356 349 345 334 305 247 224 216 218 208 204 213 216 218 215 214 216 217 215 217 224 228 232 232 228 232 231 231 233 237 239 242 241 242
355 358 0 6 5 3 3 359 352 347 349 348 346 346 247 221 228 225 218 211 204 211 213 217 214 214 213 216 218 218 221 226 226 226 226 226 225 227 230 231 234 235 239
354 359 2 1 2 2 359 353 348 347 349 352 357 0 357 233 225 226 217 216 211 208 212 210 214 211 210 215 223 225 226 231 226 225 219 218 218 219 220 223 227 231 230
352 357 357 355 356 357 357 353 351 351 348 351 356 358 354 328 257 231 222 220 216 216 216 215 215 216 219 219 222 223 219 223 225 217 217 216 218 223 224 222 223 223 223
Height
1380 1385 1389 1395 1399 1402 1407 1412 1417 1423 1429 1434 1439 1446 1450 1458 1463 1466 1471 1479 1485 1495 1500 1506 1512 1516 1524 1527 1533 1539 1542 1547 1553 1556 1560 1563 1566 1568 1570 1570 1572 1575 1578
1375 1380 1383 1388 1392 1396 1401 1405 1411 1417 1421 1428 1434 1441 1445 1452 1456 1463 1467 1472 1480 1488 1496 1502 1508 1513 1519 1524 1528 1535 1537 1545 1550 1553 1559 1563 1567 1567 1567 1568 1570 1573 1575
1372 1376 1379 1381 1385 1390 1395 1399 1406 1412 1417 1423 1429 1434 1441 1446 1450 1455 1461 1467 1474 1482 1493 1500 1505 1510 1515 1519 1525 1531 1534 1540 1546 1550 1554 1558 1560 1563 1564 1565 1568 1570 1573
1366 1370 1373 1376 1380 1385 1391 1395 1402 1408 1413 1417 1422 1426 1430 1437 1442 1449 1455 1463 1469 1479 1488 1501 1504 1508 1512 1517 1522 1530 1532 1538 1543 1546 1551 1553 1554 1558 1561 1563 1565 1568 1570
1365 1365 1368 1374 1377 1381 1386 1391 1398 1404 1409 1415 1419 1423 1427 1435 1439 1446 1453 1455 1466 1472 1489 1495 1501 1505 1510 1514 1519 1526 1529 1535 1541 1544 1548 1550 1552 1555 1556 1558 1560 1564 1567
1360 1364 1366 1370 1376 1379 1383 1387 1393 1400 1405 1410 1415 1419 1423 1427 1434 1439 1444 1450 1457 1468 1480 1492 1501 1501 1506 1511 1515 1522 1528 1533 1539 1542 1547 1548 1550 1552 1554 1558 1558 1561 1564
1362 1363 1367 1366 1367 1371 1379 1384 1389 1395 1401 1404 1410 1414 1417 1421 1426 1431 1436 1443 1451 1456 1472 1480 1488 1493 1503 1507 1513 1518 1524 1530 1535 1539 1543 1546 1548 1550 1552 1555 1557 1559 1562
1367 1363 1362 1368 1369 1367 1374 1381 1385 1391 1395 1401 1407 1409 1411 1416 1422 1426 1433 1438 1442 1449 1462 1469 1479 1491 1498 1503 1509 1514 1520 1527 1532 1536 1538 1543 1546 1547 1551 1551 1554 1558 1560
1375 1368 1367 1364 1367 1367 1367 1374 1381 1386 1392 1398 1403 1406 1409 1412 1416 1423 1429 1433 1439 1446 1457 1466 1478 1487 1491 1498 1503 1510 1515 1523 1528 1532 1535 1539 1541 1544 1547 1549 1549 1554 1556
1381 1375 1373 1369 1367 1370 1364 1368 1374 1381 1388 1394 1400 1404 1407 1409 1412 1419 1423 1427 1436 1445 1453 1462 1472 1479 1486 1491 1499 1506 1510 1517 1522 1527 1530 1533 1536 1540 1542 1545 1546 1550 1552
1389 1379 1380 1374 1370 1361 1368 1366 1370 1375 1384 1389 1394 1398 1402 1403 1408 1412 1418 1425 1434 1442 1450 1458 1465 1473 1478 1485 1494 1500 1505 1511 1515 1521 1525 1528 1532 1535 1537 1540 1542 1546 1549
1390 1386 1378 1372 1369 1368 1363 1367 1365 1367 1377 1383 1390 1394 1398 1402 1405 1411 1417 1423 1429 1437 1444 1451 1459 1466 1475 1482 1486 1494 1498 1505 1509 1515 1519 1523 1526 1530 1532 1534 1538 1541 1544
1394 1388 1378 1373 1372 1368 1369 1368 1365 1366 1372 1379 1386 1390 1395 1398 1403 1408 1413 1419 1424 1430 1437 1444 1452 1460 1469 1475 1483 1489 1494 1499 1504 1510 1514 1517 1520 1523 1526 1529 1533 1536 1538
1394 1388 1383 1384 1380 1376 1369 1371 1370 1367 1369 1375 1382 1386 1391 1395 1401 1406 1410 1415 1420 1426 1432 1440 1447 1454 1464 1471 1477 1483 1488 1493 1499 1504 1507 1510 1513 1517 1520 1523 1527 1529 1532
1400 1396 1390 1387 1383 1378 1374 1375 1368 1368 1369 1372 1377 1381 1387 1394 1400 1405 1410 1412 1417 1423 1429 1437 1443 1450 1458 1464 1470 1476 1481 1485 1491 1495 1500 1504 1506 1511 1513 1516 1520 1523 1524
1407 1403 1397 1391 1384 1382 1378 1375 1371 1370 1368 1370 1375 1379 1384 1390 1395 1402 1408 1412 1416 1422 1427 1433 1440 1444 1451 1456 1462 1470 1474 1480 1483 1490 1493 1497 1499 1503 1505 1510 1513 1517 1518
1407 1402 1399 1394 1390 1386 1378 1374 1373 1371 1369 1370 1373 1377 1379 1386 1391 1397 1404 1409 1413 1419 1425 1431 1437 1440 1445 1451 1458 1464 1469 1472 1477 1483 1487 1490 1493 1496 1498 1502 1504 1508 1510
1407 1402 1399 1394 1391 1383 1380 1377 1373 1371 1369 1372 1372 1376 1377 1381 1386 1391 1401 1405 1410 1416 1421 1427 1433 1439 1443 1449 1454 1459 1463 1465 1469 1475 1480 1484 1486 1488 1492 1494 1496 1499 1500
1414 1408 1402 1398 1390 1387 1384 1378 1375 1374 1373 1371 1371 1374 1374 1377 1382 1388 1394 1400 1405 1410 1415 1423 1428 1433 1438 1443 1448 1453 1456 1459 1462 1466 1472 1476 1479 1484 1486 1488 1489 1490 1492
1413 1408 1404 1397 1394 1390 1385 1382 1379 1375 1373 1373 1370 1372 1371 1373 1378 1383 1386 1392 1398 1405 1410 1417 1422 1427 1432 1438 1443 1446 1451 1452 1455 1459 1464 1468 1474 1477 1479 1481 1483 1482 1485
1414 1410 1406 1402 1398 1392 1386 1384 1381 1377 1375 1372 1371 1372 1370 1370 1374 1378 1381 1386 1392 1399 1404 1410 1415 1422 1428 1432 1436 1439 1442 1448 1451 1454 1458 1463 1467 1471 1473 1475 1475 1479 1480
1410 1405 1399 1396 1394 1390 1387 1385 1383 1379 1379 1377 1372 1369 1367 1370 1372 1375 1378 1382 1387 1394 1397 1403 1408 1415 1419 1424 1431 1436 1439 1444 1445 1449 1455 1458 1458 1461 1464 1468 1471 1473 1473
1412 1408 1405 1400 1394 1392 1389 1386 1383 1380 1380 1377 1372 1369 1367 1367 1369 1374 1376 1379 1384 1388 1393 1398 1403 1408 1414 1418 1424 1428 1432 1438 1441 1443 1449 1452 1450 1454 1458 1462 1464 1466 1470
1415 1410 1405 1403 1400 1396 1391 1387 1385 1384 1381 1379 1375 1370 1368 1367 1370 1373 1374 1377 1381 1385 1390 1394 1398 1402 1406 1412 1417 1422 1427 1430 1435 1439 1441 1443 1447 1448 1454 1456 1457 1459 1463
1410 1408 1407 1403 1398 1396 1393 1391 1387 1384 1380 1376 1371 1367 1366 1367 1371 1375 1375 1378 1380 1384 1387 1390 1394 1399 1402 1408 1412 1417 1421 1425 1430 1433 1434 1437 1440 1444 1448 1450 1452 1452 1457
1409 1406 1403 1398 1396 1395 1391 1388 1382 1378 1375 1372 1367 1366 1365 1366 1369 1371 1372 1375 1378 1381 1383 1387 1393 1395 1399 1403 1409 1414 1417 1422 1425 1425 1427 1432 1437 1440 1442 1445 1448 1449 1452